�N����,����,�~����,�C��,���x,�C��,����,���ϕ���,�ő�u�ԕ���,�ő厞����,���˗�,�I�_���x,�n�����x,�ő啗���N��,DTYPE
"21/05/13","00:10",0.4,16.8,83.4,1011.2,80.3,0.8,2.0,123.1,0.00,14.0,130.0,"00:04:00",1
"21/05/13","00:20",0.4,16.5,84.4,1011.4,60.6,1.1,2.8,29.9,0.00,13.9,130.0,"00:13:28",1
"21/05/13","00:30",0.8,16.2,85.7,1011.2,93.7,1.1,2.9,75.9,0.00,13.8,130.0,"00:23:22",1
"21/05/13","00:40",0.4,16.0,86.9,1011.2,66.3,1.1,2.1,97.6,0.00,13.9,130.0,"00:33:50",1
"21/05/13","00:50",0.4,15.9,87.8,1011.2,54.2,1.0,2.4,66.0,0.00,13.9,130.0,"00:43:10",1
"21/05/13","01:00",0.8,15.7,88.6,1011.2,58.5,0.8,2.5,16.6,0.00,13.9,130.0,"00:56:42",1
"21/05/13","01:10",0.2,15.7,89.2,1011.2,63.6,0.7,2.0,359.7,0.00,14.0,130.0,"01:07:24",1
"21/05/13","01:20",0.2,15.7,89.7,1010.9,83.2,1.3,3.5,0.7,0.00,14.1,130.0,"01:15:54",1
"21/05/13","01:30",0.2,15.7,90.1,1010.7,77.5,1.1,3.1,57.7,0.00,14.1,130.0,"01:28:56",1
"21/05/13","01:40",0.0,15.6,90.4,1010.4,39.8,0.8,2.5,91.5,0.00,14.1,130.0,"01:30:26",1
"21/05/13","01:50",0.0,15.6,90.7,1010.2,24.7,0.8,1.9,329.1,0.00,14.1,130.0,"01:45:06",1
"21/05/13","02:00",0.2,15.6,90.9,1010.7,40.1,0.8,3.1,110.8,0.00,14.2,130.0,"01:53:52",1
"21/05/13","02:10",0.2,15.6,91.1,1010.9,10.7,0.5,2.8,72.0,0.00,14.2,130.0,"02:08:36",1
"21/05/13","02:20",0.2,15.5,91.3,1010.2,150.0,0.6,1.9,120.6,0.00,14.1,130.0,"02:19:10",1
"21/05/13","02:30",0.2,15.5,91.4,1010.7,334.3,0.3,1.0,114.9,0.00,14.1,130.0,"02:27:14",1
"21/05/13","02:40",0.2,15.5,91.5,1010.4,17.2,0.6,1.8,97.8,0.00,14.2,130.0,"02:37:08",1
"21/05/13","02:50",0.2,15.5,91.8,1010.7,1.0,1.0,2.1,345.7,0.00,14.2,130.0,"02:40:58",1
"21/05/13","03:00",0.0,15.5,91.9,1010.7,35.2,1.0,1.9,54.4,0.00,14.2,130.0,"02:51:44",1
"21/05/13","03:10",0.0,15.5,92.1,1010.4,20.6,0.8,2.6,335.2,0.00,14.3,130.0,"03:08:20",1
"21/05/13","03:20",0.2,15.5,92.2,1010.4,21.3,0.6,1.7,33.4,0.00,14.3,130.0,"03:10:40",1
"21/05/13","03:30",0.0,15.4,92.3,1010.4,354.2,0.6,1.2,56.1,0.00,14.2,130.0,"03:21:52",1
"21/05/13","03:40",0.0,15.4,92.5,1010.9,355.2,1.2,2.8,328.3,0.00,14.2,130.0,"03:37:54",1
"21/05/13","03:50",0.2,15.4,92.6,1010.7,335.3,0.8,1.9,335.5,0.00,14.2,130.0,"03:43:24",1
"21/05/13","04:00",0.2,15.3,92.8,1010.2,271.9,0.5,1.2,306.3,0.00,14.2,130.0,"03:50:12",1
"21/05/13","04:10",0.0,15.3,92.8,1010.4,312.5,0.8,1.6,233.2,0.00,14.2,130.0,"04:00:46",1
"21/05/13","04:20",0.0,15.3,93.0,1010.7,275.3,1.0,2.0,326.9,0.00,14.2,130.0,"04:18:02",1
"21/05/13","04:30",0.2,15.2,93.1,1010.2,264.0,0.7,1.4,274.3,0.00,14.1,130.0,"04:21:30",1
"21/05/13","04:40",0.0,15.2,93.2,1010.2,293.2,0.8,1.6,305.4,0.00,14.1,130.0,"04:37:56",1
"21/05/13","04:50",0.0,15.1,93.3,1010.0,280.4,0.6,1.1,271.0,0.00,14.1,130.0,"04:40:24",1
"21/05/13","05:00",0.0,15.2,93.5,1010.0,246.4,0.6,1.1,244.9,0.00,14.2,130.0,"04:54:22",1
"21/05/13","05:10",0.0,15.2,93.6,1010.2,278.0,0.7,1.4,324.5,0.00,14.2,130.0,"05:06:46",1
"21/05/13","05:20",0.0,15.3,93.6,1010.2,334.2,0.6,1.1,322.6,0.00,14.3,130.0,"05:14:12",1
"21/05/13","05:30",0.0,15.5,93.7,1010.0,141.4,0.5,1.4,136.5,0.00,14.5,130.0,"05:27:06",1
"21/05/13","05:40",0.0,15.8,93.7,1010.0,156.1,1.0,3.1,128.8,0.00,14.8,130.0,"05:33:48",1
"21/05/13","05:50",0.0,15.9,93.7,1010.0,215.9,0.7,2.2,260.1,0.00,14.9,130.0,"05:49:16",1
"21/05/13","06:00",0.0,15.8,93.8,1010.0,305.2,1.1,3.2,300.8,0.00,14.8,130.0,"05:59:12",1
"21/05/13","06:10",0.2,16.0,93.9,1010.0,313.9,0.7,1.9,240.8,0.00,15.1,130.0,"06:04:08",1
"21/05/13","06:20",0.0,16.3,94.0,1010.0,326.2,0.6,1.9,158.5,0.00,15.4,130.0,"06:11:04",1
"21/05/13","06:30",0.0,16.4,94.0,1009.7,312.9,1.0,2.1,308.2,0.00,15.5,130.0,"06:22:24",1
"21/05/13","06:40",0.0,16.3,94.0,1010.2,300.7,1.0,1.9,321.0,0.00,15.4,130.0,"06:33:04",1
"21/05/13","06:50",0.2,16.3,94.1,1009.7,320.5,1.1,2.6,307.4,0.00,15.4,130.0,"06:45:20",1
"21/05/13","07:00",0.2,16.3,94.2,1009.7,295.1,1.0,1.9,345.4,0.01,15.4,130.0,"06:52:48",1
"21/05/13","07:10",0.0,16.3,94.3,1009.7,315.6,1.3,2.7,341.4,0.01,15.4,130.0,"07:08:16",1
"21/05/13","07:20",0.0,16.4,94.3,1009.7,281.2,0.8,1.8,306.3,0.02,15.5,130.0,"07:18:32",1
"21/05/13","07:30",0.2,16.5,94.4,1009.5,287.9,1.0,2.1,307.6,0.02,15.6,130.0,"07:25:12",1
"21/05/13","07:40",0.0,16.7,94.5,1010.0,293.1,1.2,2.1,301.2,0.04,15.9,130.0,"07:30:40",1
"21/05/13","07:50",0.0,16.7,94.5,1009.7,334.7,1.3,2.4,323.8,0.02,15.9,130.0,"07:40:48",1
"21/05/13","08:00",0.0,16.6,94.6,1009.7,314.5,1.3,2.6,309.6,0.01,15.8,130.0,"07:52:48",1
"21/05/13","08:10",0.0,17.0,94.8,1010.0,300.7,1.0,2.2,321.9,0.06,16.2,130.0,"08:07:44",1
"21/05/13","08:20",0.0,17.5,94.6,1009.7,318.1,1.2,2.4,328.1,0.06,16.7,130.0,"08:11:20",1
"21/05/13","08:30",0.0,17.2,94.6,1009.5,313.7,1.5,3.9,337.2,0.06,16.4,130.0,"08:25:12",1
"21/05/13","08:40",0.0,17.7,94.2,1009.7,244.9,0.8,1.9,240.4,0.06,16.8,130.0,"08:36:56",1
"21/05/13","08:50",0.0,17.7,94.3,1010.0,118.0,1.0,2.9,210.0,0.07,16.8,130.0,"08:47:36",1
"21/05/13","09:00",0.0,17.9,93.7,1009.7,135.1,0.8,2.2,147.4,0.07,16.9,130.0,"08:53:04",1
"21/05/13","09:10",0.0,18.7,93.7,1009.7,16.0,0.8,2.2,22.3,0.13,17.7,130.0,"09:02:40",1
"21/05/13","09:20",0.0,18.9,92.7,1009.7,139.5,1.2,3.3,146.1,0.21,17.7,130.0,"09:17:20",1
"21/05/13","09:30",0.0,19.1,90.9,1009.5,141.1,1.1,3.1,124.8,0.16,17.6,130.0,"09:24:48",1
"21/05/13","09:40",0.0,19.3,88.6,1009.7,140.7,1.2,2.4,125.3,0.13,17.4,130.0,"09:39:44",1
"21/05/13","09:50",0.0,19.4,86.1,1009.5,134.1,1.6,3.5,131.5,0.10,17.1,130.0,"09:44:00",1
"21/05/13","10:00",0.0,19.7,83.4,1009.5,128.3,1.5,3.5,124.9,0.12,16.8,130.0,"09:57:04",1
"21/05/13","10:10",0.0,20.1,81.5,1009.3,121.7,1.2,2.8,124.4,0.14,16.9,130.0,"10:02:40",1
"21/05/13","10:20",0.0,20.2,79.4,1009.5,133.9,1.3,4.3,175.4,0.14,16.6,130.0,"10:16:24",1
"21/05/13","10:30",0.0,20.5,78.5,1009.0,107.7,1.2,3.1,108.2,0.15,16.7,130.0,"10:24:24",1
"21/05/13","10:40",0.0,20.5,77.9,1008.6,123.5,1.7,4.8,60.8,0.15,16.6,130.0,"10:35:36",1
"21/05/13","10:50",0.0,20.4,76.9,1008.6,135.9,1.8,4.1,128.4,0.16,16.3,130.0,"10:46:48",1
"21/05/13","11:00",0.0,20.9,76.6,1008.6,136.6,1.6,3.9,169.7,0.18,16.7,130.0,"10:56:48",1
"21/05/13","11:10",0.0,21.2,75.7,1008.3,132.5,1.8,4.3,113.3,0.22,16.8,130.0,"11:03:12",1
"21/05/13","11:20",0.0,21.4,74.7,1008.3,130.8,1.7,3.4,106.5,0.23,16.8,130.0,"11:17:28",1
"21/05/13","11:30",0.0,22.1,73.9,1008.3,121.4,1.5,2.8,116.2,0.29,17.3,130.0,"11:29:28",1
"21/05/13","11:40",0.0,22.7,71.2,1007.6,87.0,1.5,3.5,117.4,0.37,17.3,130.0,"11:31:52",1
"21/05/13","11:50",0.0,23.1,70.4,1007.6,148.4,1.3,3.2,151.2,0.31,17.5,130.0,"11:42:48",1
"21/05/13","12:00",0.0,23.2,69.2,1007.4,99.6,1.2,2.6,114.4,0.26,17.3,130.0,"11:54:08",1
"21/05/13","12:10",0.0,23.0,68.6,1007.4,109.6,1.5,4.1,154.3,0.23,17.0,130.0,"12:04:48",1
"21/05/13","12:20",0.0,23.3,68.6,1006.4,94.6,1.2,4.2,137.5,0.25,17.2,130.0,"12:19:20",1
"21/05/13","12:30",0.0,23.5,68.1,1006.7,132.0,1.6,6.3,126.6,0.28,17.3,130.0,"12:25:04",1
"21/05/13","12:40",0.0,23.7,67.8,1006.7,111.3,1.5,3.3,122.2,0.29,17.4,130.0,"12:38:48",1
"21/05/13","12:50",0.0,23.7,66.7,1006.4,131.8,2.5,5.2,129.5,0.31,17.2,130.0,"12:47:28",1
"21/05/13","13:00",0.0,23.4,66.9,1006.2,144.2,2.7,6.0,102.4,0.21,16.9,130.0,"12:58:56",1
"21/05/13","13:10",0.0,23.5,67.1,1006.0,141.6,2.5,4.4,138.9,0.22,17.1,130.0,"13:09:44",1
"21/05/13","13:20",0.0,23.6,67.5,1006.2,118.3,2.5,5.6,136.4,0.24,17.3,130.0,"13:10:24",1
"21/05/13","13:30",0.0,23.9,67.3,1006.2,151.2,1.8,3.2,147.8,0.24,17.5,130.0,"13:21:20",1
"21/05/13","13:40",0.0,24.0,66.6,1006.2,124.1,1.8,4.5,89.5,0.24,17.4,130.0,"13:38:00",1
"21/05/13","13:50",0.0,23.8,65.9,1005.7,145.6,1.8,3.3,119.6,0.21,17.1,130.0,"13:43:36",1
"21/05/13","14:00",0.0,23.8,66.9,1005.7,143.4,2.0,4.1,132.2,0.21,17.3,130.0,"13:58:24",1
"21/05/13","14:10",0.0,23.7,66.4,1006.2,151.4,1.8,3.4,148.1,0.22,17.1,130.0,"14:05:52",1
"21/05/13","14:20",0.0,23.8,67.1,1005.7,149.8,2.1,4.0,163.2,0.20,17.4,130.0,"14:11:36",1
"21/05/13","14:30",0.0,24.1,66.6,1005.2,184.7,2.0,3.5,188.8,0.29,17.5,130.0,"14:24:16",1
"21/05/13","14:40",0.0,24.3,64.9,1005.5,176.4,2.3,4.2,184.4,0.26,17.3,130.0,"14:30:32",1
"21/05/13","14:50",0.0,24.5,64.9,1005.7,169.9,1.0,3.6,203.4,0.20,17.5,130.0,"14:40:24",1
"21/05/13","15:00",0.0,24.6,64.9,1005.5,165.6,1.0,2.5,171.7,0.17,17.6,130.0,"14:58:24",1
"21/05/13","15:10",0.0,24.3,65.7,1005.5,136.5,1.6,3.3,127.3,0.18,17.5,130.0,"15:02:56",1
"21/05/13","15:20",0.0,24.1,66.0,1005.2,127.1,2.0,3.7,115.6,0.18,17.4,130.0,"15:10:24",1
"21/05/13","15:30",0.0,24.4,64.8,1005.2,117.3,1.5,4.5,120.1,0.23,17.4,130.0,"15:22:56",1
"21/05/13","15:40",0.0,24.6,63.8,1004.8,141.7,1.3,3.1,161.5,0.21,17.3,130.0,"15:34:48",1
"21/05/13","15:50",0.0,24.9,63.1,1004.8,101.9,0.7,2.4,35.0,0.17,17.4,130.0,"15:46:00",1
"21/05/13","16:00",0.0,24.6,63.9,1005.0,115.7,1.1,2.2,105.4,0.16,17.4,130.0,"15:54:48",1
"21/05/13","16:10",0.0,24.3,64.4,1005.0,109.6,1.7,3.4,102.7,0.15,17.2,130.0,"16:08:08",1
"21/05/13","16:20",0.0,24.3,64.6,1005.0,139.8,1.8,3.7,98.2,0.18,17.2,130.0,"16:10:40",1
"21/05/13","16:30",0.0,24.4,64.3,1005.0,119.1,1.3,3.1,127.8,0.16,17.3,130.0,"16:29:28",1
"21/05/13","16:40",0.0,24.3,63.9,1005.2,100.4,1.3,2.9,120.6,0.15,17.1,130.0,"16:31:28",1
"21/05/13","16:50",0.0,24.6,64.3,1005.0,118.6,1.3,2.9,169.1,0.13,17.5,130.0,"16:43:20",1
"21/05/13","17:00",0.0,24.5,63.6,1005.0,103.4,0.8,2.8,112.6,0.11,17.2,130.0,"16:59:52",1
"21/05/13","17:10",0.0,24.9,63.3,1005.2,41.8,0.6,1.9,344.2,0.15,17.5,130.0,"17:06:08",1
"21/05/13","17:20",0.0,24.9,62.3,1005.0,33.1,0.7,2.8,122.7,0.11,17.2,130.0,"17:19:12",1
"21/05/13","17:30",0.0,24.4,62.3,1005.0,89.4,1.1,3.2,65.3,0.06,16.8,130.0,"17:29:44",1
"21/05/13","17:40",0.0,24.3,63.7,1005.0,101.3,1.0,2.1,147.0,0.04,17.0,130.0,"17:37:04",1
"21/05/13","17:50",0.0,24.4,63.9,1005.0,122.8,1.2,2.6,87.0,0.04,17.2,130.0,"17:41:36",1
"21/05/13","18:00",0.0,24.4,63.6,1005.0,103.9,0.7,1.8,111.3,0.03,17.1,130.0,"17:58:24",1
"21/05/13","18:10",0.0,24.5,63.2,1005.2,39.8,0.8,3.1,128.5,0.03,17.1,130.0,"18:00:16",1
"21/05/13","18:20",0.0,24.4,63.1,1005.2,24.7,0.5,1.3,57.0,0.02,17.0,130.0,"18:17:44",1
"21/05/13","18:30",0.0,24.0,63.5,1005.5,9.4,0.6,1.3,7.1,0.01,16.7,130.0,"18:28:00",1
"21/05/13","18:40",0.0,23.7,66.4,1005.2,357.3,0.7,1.4,355.0,0.00,17.1,130.0,"18:38:32",1
"21/05/13","18:50",0.0,22.8,69.7,1005.5,312.9,1.0,1.7,348.0,0.00,17.0,130.0,"18:41:52",1
"21/05/13","19:00",0.0,22.0,72.1,1005.7,282.0,0.6,1.3,339.0,0.00,16.8,130.0,"18:50:08",1
"21/05/13","19:10",0.0,21.5,73.9,1005.7,325.3,0.7,1.1,318.1,0.00,16.7,130.0,"19:00:08",1
"21/05/13","19:20",0.0,21.1,75.7,1006.2,327.8,0.7,1.8,341.4,0.00,16.7,130.0,"19:10:24",1
"21/05/13","19:30",0.0,20.8,77.6,1006.4,311.5,1.5,2.9,338.6,0.00,16.8,130.0,"19:25:44",1
"21/05/13","19:40",0.0,20.5,78.8,1006.2,330.7,1.2,2.0,348.0,0.00,16.7,130.0,"19:35:20",1
"21/05/13","19:50",0.0,20.1,80.0,1006.4,317.8,1.5,2.1,331.6,0.00,16.6,130.0,"19:41:36",1
"21/05/13","20:00",0.0,19.8,81.1,1006.4,308.2,0.8,2.4,332.9,0.00,16.5,130.0,"19:58:24",1
"21/05/13","20:10",0.0,19.6,82.1,1006.7,300.8,1.3,1.9,315.7,0.00,16.5,130.0,"20:09:04",1
"21/05/13","20:20",0.0,19.3,83.2,1006.9,304.5,1.6,3.5,327.5,0.00,16.4,130.0,"20:10:16",1
"21/05/13","20:30",0.0,19.1,83.8,1006.9,297.0,1.0,1.4,303.2,0.00,16.3,130.0,"20:20:32",1
"21/05/13","20:40",0.0,19.0,84.5,1007.4,305.2,1.2,1.8,326.4,0.00,16.4,130.0,"20:35:36",1
"21/05/13","20:50",0.0,18.9,84.9,1007.6,297.1,1.2,1.8,318.2,0.00,16.3,130.0,"20:41:52",1
"21/05/13","21:00",0.0,18.7,85.4,1007.8,288.7,1.2,2.1,320.9,0.00,16.2,130.0,"20:50:02",1
"21/05/13","21:10",0.0,18.7,85.8,1007.6,313.1,1.7,2.8,327.0,0.00,16.3,130.0,"21:07:20",1
"21/05/13","21:20",0.0,18.6,86.1,1007.8,295.5,1.5,2.8,315.0,0.00,16.3,130.0,"21:12:16",1
"21/05/13","21:30",0.0,18.5,86.4,1007.8,295.3,1.3,3.2,310.9,0.00,16.2,130.0,"21:24:08",1
"21/05/13","21:40",0.0,18.4,86.7,1007.8,293.2,1.1,1.8,273.6,0.00,16.2,130.0,"21:33:28",1
"21/05/13","21:50",0.0,18.2,86.9,1007.6,300.7,1.0,1.9,338.5,0.00,16.0,130.0,"21:47:28",1
"21/05/13","22:00",0.0,18.1,87.2,1007.6,324.8,1.3,2.0,328.6,0.00,16.0,130.0,"21:52:24",1
"21/05/13","22:10",0.0,17.7,87.7,1007.6,337.4,1.0,1.4,345.9,0.00,15.7,130.0,"22:08:16",1
"21/05/13","22:20",0.0,17.5,88.2,1007.6,328.0,1.3,1.9,337.5,0.00,15.6,130.0,"22:14:56",1
"21/05/13","22:30",0.0,17.4,88.7,1007.6,316.2,1.3,1.9,335.5,0.00,15.6,130.0,"22:20:08",1
"21/05/13","22:40",0.0,17.5,89.2,1007.6,320.1,1.5,2.5,319.1,0.00,15.7,130.0,"22:36:32",1
"21/05/13","22:50",0.0,17.4,89.4,1007.6,306.1,1.1,1.4,303.5,0.00,15.7,130.0,"22:40:08",1
"21/05/13","23:00",0.0,17.4,89.8,1007.6,297.4,1.1,1.7,311.1,0.00,15.7,130.0,"22:58:40",1
"21/05/13","23:10",0.0,17.5,90.0,1007.6,320.7,1.6,2.5,327.8,0.00,15.9,130.0,"23:09:20",1
"21/05/13","23:20",0.0,17.6,90.0,1007.4,328.5,2.0,3.2,334.9,0.00,16.0,130.0,"23:11:12",1
"21/05/13","23:30",0.0,17.6,90.0,1007.8,324.2,1.7,3.9,336.9,0.00,16.0,130.0,"23:29:36",1
"21/05/13","23:40",0.0,17.7,89.9,1007.6,319.2,2.5,3.9,327.9,0.00,16.1,130.0,"23:34:56",1
"21/05/13","23:50",0.0,17.7,89.8,1007.8,309.1,2.0,4.4,336.7,0.00,16.0,130.0,"23:46:40",1
"21/05/13","24:00",0.0,17.5,89.7,1007.8,349.6,1.0,2.5,335.5,0.00,15.8,130.0,"23:51:52",1
